Mount Pleasant, MI

5:17 PM EDT on March 28, 2017 (GMT -0400)
Mount Pleasant Municipal

Weather History for KMOP - September, 2013

Change the Weather History Date:

Wednesday, September 25, 2013

  Actual Average (KAMN) Record (KAMN)
Temperature  
Mean Temperature 54 °F -  
Max Temperature 69 °F 67 °F 81 °F (1973)
Min Temperature 40 °F 43 °F 30 °F (1989)
Degree Days  
Heating Degree Days 10    
Growing Degree Days 4 (Base 50)    
Moisture  
Dew Point 46 °F    
Average Humidity 79    
Maximum Humidity 96    
Minimum Humidity 42    
Precipitation  
Precipitation 0.00 in - - ()
Sea Level Pressure  
Sea Level Pressure 30.02 in    
Wind  
Wind Speed 1 mph (NE)    
Max Wind Speed 8 mph    
Max Gust Speed -    
Visibility 8 miles    
Events      
Averages and records for this station are not official NWS values.
T = Trace of Precipitation, MM = Missing Value Source: NWS Daily Summary

Daily Weather History Graph

Daily Weather History Graph

Search for Another Location

Airport or City:

Trip Planner

Search our weather history database for the weather conditions in past years. The results will help you decide how hot, cold, wet, or windy it might be!

Date:

Astronomy

Sep. 25, 2013 Rise Set
Actual Time 7:29 AM EDT 7:30 PM EDT
Civil Twilight 7:01 AM EDT 7:58 PM EDT
Nautical Twilight 6:27 AM EDT 8:32 PM EDT
Astronomical Twilight 5:53 AM EDT 9:06 PM EDT
Moon 11:26 PM EDT (9/25) 1:44 PM EDT (9/25)
Length of Visible Light 12h 57m
Length of Day
12h 00m
Waning Gibbous, 64% of the Moon is Illuminated
Sep 25
Waning Gibbous
Sep 26
Last Quarter
Oct 4
New
Oct 11
First Quarter
Oct 18
Full

Hourly Weather History & Observations

Time (EDT) Temp. Windchill Dew Point Humidity Pressure Visibility Wind Dir Wind Speed Gust Speed Precip Events Conditions
12:17 AM 43.5 °F 41.9 °F 41.7 °F 93% 30.01 in 2.0 mi North 3.5 mph - N/A   Clear
12:38 AM 46.0 °F - 44.6 °F 95% 30.03 in 10.0 mi Calm Calm - N/A   Clear
12:57 AM 44.4 °F - 42.8 °F 94% 30.03 in 7.0 mi Calm Calm - N/A   Clear
1:17 AM 45.7 °F - 44.2 °F 95% 30.02 in 10.0 mi Calm Calm - N/A   Clear
1:38 AM 45.5 °F - 43.9 °F 94% 30.03 in 10.0 mi Calm Calm - N/A   Clear
1:57 AM 43.9 °F - 42.6 °F 95% 30.03 in 4.0 mi Calm Calm - N/A   Clear
2:17 AM 43.9 °F - 42.6 °F 95% 30.02 in 10.0 mi Calm Calm - N/A   Clear
2:37 AM 43.0 °F - 41.7 °F 95% 30.03 in 7.0 mi Calm Calm - N/A   Clear
2:57 AM 43.5 °F - 42.1 °F 95% 30.03 in 1.8 mi Calm Calm - N/A   Mist
3:17 AM 42.6 °F - 41.4 °F 95% 30.03 in - Calm Calm - N/A   Unknown
3:36 AM 42.6 °F - 41.2 °F 95% 30.02 in - Calm Calm - N/A   Unknown
3:57 AM 42.4 °F - 41.2 °F 95% 30.02 in 1.2 mi Calm Calm - N/A   Mist
4:17 AM 42.6 °F - 41.2 °F 95% 30.02 in 7.0 mi Calm Calm - N/A   Clear
4:37 AM 43.0 °F - 41.9 °F 96% 30.01 in 3.0 mi Calm Calm - N/A   Clear
4:57 AM 41.9 °F 40.0 °F 40.5 °F 95% 30.02 in 4.0 mi North 3.5 mph - N/A   Clear
5:17 AM 42.4 °F - 41.2 °F 95% 30.02 in 10.0 mi Calm Calm - N/A   Clear
5:37 AM 41.9 °F - 40.6 °F 95% 30.02 in 7.0 mi Calm Calm - N/A   Clear
5:57 AM 42.8 °F - 41.5 °F 95% 30.02 in 10.0 mi Calm Calm - N/A   Clear
6:17 AM 42.1 °F - 41.0 °F 96% 30.02 in 7.0 mi Calm Calm - N/A   Clear
6:37 AM 41.9 °F - 40.5 °F 95% 30.02 in 3.0 mi Calm Calm - N/A   Clear
6:57 AM 40.5 °F - 39.0 °F 95% 30.03 in 4.0 mi Calm Calm - N/A   Clear
7:17 AM 40.1 °F - 38.7 °F 95% 30.03 in 1.8 mi Calm Calm - N/A   Mist
7:37 AM 41.0 °F - 39.6 °F 95% 30.03 in 1.5 mi Calm Calm - N/A   Mist
7:57 AM 41.5 °F - 40.3 °F 95% 30.04 in 2.0 mi Calm Calm - N/A   Clear
8:17 AM 42.8 °F - 41.5 °F 95% 30.03 in 10.0 mi Calm Calm - N/A   Clear
8:37 AM 43.9 °F - 42.8 °F 96% 30.03 in 10.0 mi Calm Calm - N/A   Clear
8:57 AM 46.4 °F - 45.3 °F 96% 30.03 in 10.0 mi Calm Calm - N/A   Clear
9:17 AM 47.8 °F - 46.4 °F 95% 30.03 in 10.0 mi Calm Calm - N/A   Clear
9:37 AM 48.9 °F - 47.3 °F 94% 30.03 in 10.0 mi Calm Calm - N/A   Mostly Cloudy
9:57 AM 51.1 °F - 49.5 °F 94% 30.03 in 10.0 mi Calm Calm - N/A   Mostly Cloudy
10:17 AM 52.5 °F - 50.5 °F 93% 30.03 in 10.0 mi Calm Calm - N/A   Mostly Cloudy
10:37 AM 54.3 °F - 52.2 °F 92% 30.03 in 10.0 mi Calm Calm - N/A   Overcast
10:57 AM 55.9 °F - 53.1 °F 90% 30.03 in 10.0 mi Calm Calm - N/A   Mostly Cloudy
11:17 AM 56.8 °F - 52.7 °F 86% 30.04 in 10.0 mi Calm Calm - N/A   Scattered Clouds
11:38 AM 59.4 °F - 52.9 °F 79% 30.03 in 10.0 mi ENE 3.5 mph - N/A   Clear
11:57 AM 60.3 °F - 52.7 °F 76% 30.03 in 10.0 mi ENE 4.6 mph - N/A   Scattered Clouds
12:17 PM 60.6 °F - 51.3 °F 71% 30.03 in 10.0 mi NE 3.5 mph - N/A   Scattered Clouds
12:38 PM 63.5 °F - 52.2 °F 67% 30.03 in 10.0 mi East 5.8 mph - N/A   Scattered Clouds
12:57 PM 64.8 °F - 50.0 °F 59% 30.02 in 10.0 mi ESE 3.5 mph - N/A   Clear
1:17 PM 64.9 °F - 47.5 °F 53% 30.02 in 10.0 mi ENE 5.8 mph - N/A   Clear
1:38 PM 65.7 °F - 48.0 °F 53% 30.01 in 10.0 mi Calm Calm - N/A   Clear
1:57 PM 66.0 °F - 48.4 °F 53% 30.01 in 10.0 mi NE 5.8 mph - N/A   Clear
2:17 PM 67.1 °F - 48.2 °F 51% 30.00 in 10.0 mi NE 6.9 mph - N/A   Clear
2:37 PM 68.2 °F - 47.7 °F 48% 30.00 in 10.0 mi North 3.5 mph - N/A   Clear
2:57 PM 67.8 °F - 47.5 °F 48% 30.00 in 10.0 mi Calm Calm - N/A   Clear
3:17 PM 69.3 °F - 47.3 °F 45% 29.99 in 10.0 mi Calm Calm - N/A   Clear
3:37 PM 69.3 °F - 47.1 °F 45% 29.99 in 10.0 mi NE 5.8 mph - N/A   Clear
3:57 PM 69.6 °F - 49.1 °F 48% 29.99 in 10.0 mi NE 8.1 mph - N/A   Clear
4:17 PM 69.6 °F - 48.0 °F 46% 30.00 in 10.0 mi NE 8.1 mph - N/A   Clear
4:37 PM 69.3 °F - 46.6 °F 44% 29.99 in 10.0 mi NE 4.6 mph - N/A   Clear
4:57 PM 69.8 °F - 45.9 °F 42% 29.99 in 10.0 mi NE 4.6 mph - N/A   Clear
5:17 PM 69.8 °F - 46.8 °F 44% 29.99 in 10.0 mi ENE 5.8 mph - N/A   Clear
5:37 PM 69.3 °F - 46.8 °F 45% 29.99 in 10.0 mi NE 4.6 mph - N/A   Clear
5:57 PM 68.7 °F - 47.1 °F 46% 29.99 in 10.0 mi NNE 6.9 mph - N/A   Clear
6:17 PM 68.0 °F - 44.6 °F 43% 30.00 in 10.0 mi NNE 5.8 mph - N/A   Clear
6:37 PM 67.1 °F - 45.1 °F 45% 30.00 in 10.0 mi ENE 4.6 mph - N/A   Clear
6:57 PM 65.1 °F - 46.8 °F 51% 30.00 in 10.0 mi ENE 4.6 mph - N/A   Clear
7:17 PM 62.8 °F - 46.6 °F 55% 30.00 in 10.0 mi Calm Calm - N/A   Clear
7:37 PM 59.0 °F - 47.3 °F 65% 30.00 in 10.0 mi Calm Calm - N/A   Clear
7:57 PM 55.6 °F - 47.7 °F 75% 30.00 in 10.0 mi Calm Calm - N/A   Clear
8:17 PM 54.3 °F - 49.1 °F 83% 30.00 in 10.0 mi Calm Calm - N/A   Clear
8:37 PM 54.0 °F - 48.7 °F 82% 30.00 in 10.0 mi Calm Calm - N/A   Clear
8:57 PM 52.3 °F - 48.6 °F 87% 30.01 in 10.0 mi Calm Calm - N/A   Clear
9:17 PM 52.7 °F - 48.7 °F 86% 30.01 in 10.0 mi Calm Calm - N/A   Clear
9:38 PM 52.0 °F - 46.9 °F 83% 30.01 in 10.0 mi East 3.5 mph - N/A   Clear
9:57 PM 50.5 °F - 48.0 °F 91% 30.01 in 10.0 mi Calm Calm - N/A   Clear
10:17 PM 51.3 °F - 48.7 °F 91% 30.02 in 10.0 mi Calm Calm - N/A   Clear
10:37 PM 49.6 °F - 47.8 °F 94% 30.02 in 7.0 mi Calm Calm - N/A   Clear
10:57 PM 46.9 °F - 44.8 °F 92% 30.02 in 4.0 mi Calm Calm - N/A   Clear
11:17 PM 47.7 °F - 45.7 °F 93% 30.02 in 10.0 mi Calm Calm - N/A   Clear
11:37 PM 48.4 °F - 46.8 °F 94% 30.02 in 5.0 mi Calm Calm - N/A   Clear
11:57 PM 46.8 °F - 45.1 °F 94% 30.03 in 1.2 mi Calm Calm - N/A   Mist